Starlink 3176

operational
NORAD ID: 51106 Int'l Des: 2022-005 Owner: SPXS Country: US Constellation: starlink
LEOCIRCULAR

关于 Starlink 3176

正在加载描述...

实时位置

正在加载3D地球...

即将过境

高度历史

Altitude vs Time

uPlot chart will show altitude changes over time

两行轨道根数

1 51106U 22005C 26036.10157306 .00001168 00000-0 91464-4 0 9996
2 51106 53.2168 75.4168 0001410 87.5050 272.6103 15.08832425223952
Epoch: Feb 5, 2026 • Age: 13 hours

当前状态

高度 539.9 km
速度 7.60 km/s
星下点 21.14°N, 84.84°E
发射日期 Jan 19, 2022
运行时间 4 years
类型 internet

技术详情

分类 Payload
质量 297.00 kg
干质量 275.00 kg
总质量 297.00 kg
长度 0.20 m
直径 2.80 m
跨度 9.00 m
形状 Box + pan
制造商 SPXS
平台类型 Starlink
阶段状态 In Orbit
所有者/国家 SPXS/US

大型星座

Loading constellations...